Location: Bruderhein
(53.8035°N, 112.9265°W)
Time: 00:56:22
(UTC+00:00)

Gurwin Techsat 1B - Pass Details

Date: 25 April 2024
Orbit: 811 x 812 km, 98.9° (Epoch: 20 May)

Event Time Altitude Azimuth Distance (km) Brightness Sun altitude
Rises 10:05:00 0° 24° (NNE) 3,350 13.4 -15.1°
Reaches altitude 10° 10:07:49 10° 38° (NE) 2,413 12.5 -14.8°
Maximum altitude 10:12:03 24° 91° (E) 1,649 10.7 -14.4°
Drops below altitude 10° 10:16:16 10° 144° (SE) 2,398 10.9 -14.0°
Sets 10:19:03 0° 158° (SSE) 3,324 11.5 -13.7°
